GLOBAL-9 (47971 NORAD) Tracking and Keplerian Element Data

This shows tracking and keplerian element data for the satellite.

Feedback or suggestion? Click here.




ElementValue
Catalog47971
NameGLOBAL-9
Epoch Orbit1397
Epoch Day172.79763951
Epoch Year2021
RAAN319.3551
Inclination45.0029
Eccentricity0.0005449
Argument of Perigee89.025
Mean Anonmoly271.1262
Mean Motion15.37662439
Decay Rate1.91E-05
L11 47971U 21023G 21172.79763951 .00001910 00000-0 59437-4 0 9999
L22 47971 45.0029 319.3551 0005449 89.0250 271.1262 15.37662439 13970

Live tracking and technical data element details for GLOBAL-9 (NORAD 47971). GLOBAL-9 can be tracked NOW for your location showing map with azimuth and elevation plus other details from your city location.

Track the satellite on the map from your city or location and see movement details for azimuth, elevation, latitude, longitude, range, height, and movement on the map or in text.







IsCatalogInMostPopularTable: catalog: 47971, numindb: 42
Update: records affected: 1



GetName: 47971 GLOBAL-9

Hit Count: updated at: Thu, 24 Jun 2021 03:20:57 GMT